Weather History for Sioux City, IA

Change the Weather History Date:

Tuesday, September 3, 2013

  Actual Average Record
Temperature  
Mean Temperature 67 °F 68 °F  
Max Temperature 83 °F 81 °F 99 °F (1947)
Min Temperature 51 °F 56 °F 37 °F (1974)
Degree Days  
Heating Degree Days 0 1  
Month to date heating degree days 0 3  
Since 1 July heating degree days 20 18  
Cooling Degree Days 2 5  
Month to date cooling degree days 11 15  
Year to date cooling degree days 812 792  
Growing Degree Days 16 (Base 50)    
Moisture  
Dew Point 61 °F    
Average Humidity 79    
Maximum Humidity 100    
Minimum Humidity 58    
Precipitation  
Precipitation 0.00 in 0.11 in 3.07 in (2009)
Month to date precipitation 0.37 0.32  
Year to date precipitation 20.50 20.86  
Snow  
Snow 0.00 in 0.00 in 0.00 in ()
Month to date snowfall 0.0 0.0  
Since 1 July snowfall 0.0 0.0  
Since 1 September snowfall 0.0 0.0  
Snow Depth 0.00 in    
Sea Level Pressure  
Sea Level Pressure 30.04 in    
Wind  
Wind Speed 6 mph (SE)    
Max Wind Speed 14 mph    
Max Gust Speed 17 mph    
Visibility 10 miles    
Events      
T = Trace of Precipitation, MM = Missing Value Source: NWS Daily Summary

Daily Weather History Graph

Daily Weather History Graph

Search for Another Location

Airport:

Trip Planner

Search our weather history database for the weather conditions in past years. The results will help you decide how hot, cold, wet, or windy it might be!

Date:

Astronomy

Sep. 03, 2013 Rise Set
Actual Time 6:53 AM CDT 7:55 PM CDT
Civil Twilight 6:24 AM CDT 8:24 PM CDT
Nautical Twilight 5:49 AM CDT 8:58 PM CDT
Astronomical Twilight 5:13 AM CDT 9:34 PM CDT
Moon 5:06 AM CDT (9/3) 6:43 PM CDT (9/3)
Length of Visible Light 14h 00m
Length of Day
13h 02m
Waning Crescent, 3% of the Moon is Illuminated
Sep 3
Waning Crescent
Sep 5
New
Sep 12
First Quarter
Sep 19
Full
Sep 26
Last Quarter

Hourly Weather History & Observations

Time (CDT) Temp. Heat Index Dew Point Humidity Pressure Visibility Wind Dir Wind Speed Gust Speed Precip Events Conditions
12:52 AM 54.0 °F - 53.1 °F 97% 30.04 in 10.0 mi Calm Calm - N/A   Clear
1:52 AM 55.9 °F - 53.1 °F 90% 30.04 in 10.0 mi Calm Calm - N/A   Clear
2:52 AM 52.0 °F - 51.1 °F 97% 30.06 in 10.0 mi Calm Calm - N/A   Clear
3:52 AM 55.0 °F - 53.1 °F 93% 30.06 in 10.0 mi ESE 3.5 mph - N/A   Clear
4:52 AM 53.1 °F - 52.0 °F 96% 30.06 in 10.0 mi East 3.5 mph - N/A   Clear
5:52 AM 53.1 °F - 52.0 °F 96% 30.07 in 10.0 mi ESE 3.5 mph - N/A   Clear
6:52 AM 53.1 °F - 52.0 °F 96% 30.09 in 10.0 mi SE 3.5 mph - N/A   Clear
7:52 AM 55.9 °F - 54.0 °F 93% 30.09 in 10.0 mi ESE 4.6 mph - N/A   Clear
8:52 AM 60.1 °F - 55.9 °F 86% 30.10 in 10.0 mi SE 6.9 mph - N/A   Clear
9:52 AM 64.9 °F - 57.9 °F 78% 30.10 in 10.0 mi SSE 6.9 mph - N/A   Clear
10:52 AM 71.1 °F - 61.0 °F 70% 30.09 in 10.0 mi SE 6.9 mph - N/A   Clear
11:52 AM 75.0 °F - 63.0 °F 66% 30.07 in 10.0 mi SE 8.1 mph - N/A   Clear
12:52 PM 78.1 °F - 64.9 °F 64% 30.05 in 10.0 mi SSE 5.8 mph - N/A   Clear
1:52 PM 81.0 °F 83.0 °F 66.0 °F 60% 30.03 in 10.0 mi SSE 8.1 mph - N/A   Clear
2:52 PM 82.9 °F 85.0 °F 66.0 °F 56% 30.02 in 10.0 mi South 8.1 mph - N/A   Clear
3:52 PM 82.9 °F 85.0 °F 66.0 °F 56% 30.00 in 10.0 mi SW 10.4 mph - N/A   Clear
4:52 PM 81.0 °F 83.0 °F 66.0 °F 60% 30.00 in 10.0 mi South 9.2 mph - N/A   Clear
5:52 PM 81.0 °F 83.0 °F 66.0 °F 60% 30.01 in 10.0 mi South 6.9 mph - N/A   Clear
6:52 PM 80.1 °F 82.3 °F 66.9 °F 64% 30.00 in 10.0 mi SSE 5.8 mph - N/A   Clear
7:52 PM 75.9 °F - 69.1 °F 79% 29.99 in 10.0 mi ESE 5.8 mph - N/A   Clear
8:52 PM 73.9 °F - 69.1 °F 85% 30.00 in 10.0 mi ESE 4.6 mph - N/A   Clear
9:52 PM 73.0 °F - 68.0 °F 84% 30.00 in 10.0 mi SE 4.6 mph - N/A   Clear
10:52 PM 72.0 °F - 68.0 °F 87% 30.00 in 10.0 mi ESE 4.6 mph - N/A   Clear
11:52 PM 71.1 °F - 66.9 °F 87% 30.01 in 10.0 mi ESE 6.9 mph - N/A   Clear